[[{"header":{"parameterUnit":"m.s-1","parameterCategory":1,"la1":30.2991,"la2":30.254,"lo1":-89.0895,"lo2":-89.0444,"dy":0.0017,"dx":0.0017,"nx":28,"ny":28,"refTime":"2023-03-19T21:00:00:Z","depth":0,"parameterNumber":2,"parameterNumberName":"U-component_of_WINDS"},"data":[0,0,0,0,0,0,0,0,0,0,0,0,0,0,0,0,0,0,0,0,0,0,0,0,0,0,0,0,0,0,0,0,0,0,0,0,0,0,0,0,0,0,0,0,0,0,0,0,0,0,0,0,0,0,0,0,0,0,-4.6869,-4.6869,0,-4.6904,-4.6904,-4.6905,-4.6883,-4.6882,-4.6881,-4.688,-4.6914,-4.6916,-4.6917,0,0,0,0,0,0,0,0,0,0,0,0,0,-4.6781,-4.6782,-4.6868,-4.6869,-4.6869,-4.6904,-4.6904,-4.6905,-4.6883,-4.6882,-4.6881,-4.6879,-4.6913,-4.6915,-4.6918,0,0,0,0,0,0,0,0,0,0,0,0,0,-4.6818,-4.6783,-4.6868,-4.6863,-4.6863,-4.6904,-4.6904,-4.6905,-4.6883,-4.6882,-4.688,-4.6879,-4.6912,-4.6915,-4.6918,-4.6966,0,0,-4.6926,-4.6928,0,0,0,0,0,0,0,0,-4.6816,-4.6821,-4.6863,-4.6863,-4.6863,-4.6888,-4.6886,-4.6925,-4.6884,-4.6875,-4.688,-4.6878,-4.6906,-4.6909,-4.6919,-4.6968,-4.6969,-4.6927,-4.6928,-4.693,-4.693,0,0,0,0,0,0,0,-4.6813,-4.6819,-4.6882,-4.6864,-4.6864,-4.6858,-4.6862,-4.6893,-4.6899,-4.6876,-4.6875,-4.6879,-4.6906,-4.6917,-4.692,-4.697,-4.6927,-4.6929,-4.6931,-4.6932,-4.706,-4.7061,0,0,0,0,0,0,-4.6811,-4.6817,-4.6881,-4.6883,-4.6835,-4.6861,-4.6865,-4.6881,-4.6899,-4.69,-4.688,-4.6878,-4.6913,-4.6917,-4.6921,-4.6978,-4.693,-4.6932,-4.6934,-4.7058,-4.706,-4.7062,0,0,0,0,0,0,-4.6809,-4.6817,-4.688,-4.685,-4.6858,-4.6864,-4.6883,-4.6883,-4.6893,-4.6902,-4.6903,-4.689,-4.6912,-4.6917,-4.6955,-4.6979,-4.6933,-4.6936,-4.7056,-4.7059,-4.7061,-4.7092,0,0,0,0,0,0,-4.6807,-4.6817,-4.6835,-4.6851,-4.6859,-4.6914,-4.6884,-4.6885,-4.6899,-4.6896,-4.6912,-4.6913,-4.6911,-4.6951,-4.6958,-4.6982,-4.6938,-4.7054,-4.7057,-4.706,-4.7089,-4.7096,-4.7101,0,0,0,0,0,-4.6804,-4.6842,-4.6836,-4.6844,-4.6882,-4.6915,-4.692,-4.6918,-4.6901,-4.6919,-4.6925,-4.6912,-4.6976,-4.6955,-4.6963,-4.6988,-4.7052,-4.7056,-4.706,-4.7086,-4.7094,-4.7101,0,0,0,0,0,0,-4.6827,-4.6843,-4.6837,-4.6881,-4.6897,-4.6911,-4.6934,-4.6926,-4.6946,-4.6943,-4.6939,-4.6943,-4.6982,-4.6989,-4.6966,-4.7036,-4.7011,-4.7017,-4.7029,-4.7036,-4.7042,-4.7038,-4.694,0,0,0,0,0,-4.6837,-4.6863,-4.6876,-4.6914,-4.6922,-4.6927,-4.6941,-4.6939,-4.6954,-4.696,-4.6969,-4.6984,-4.7008,-4.7023,-4.7045,-4.7091,-4.7094,-4.7112,-4.7119,-4.7123,-4.7127,-4.7152,-4.716,-4.7075,-4.7075,-4.7075,0,0,-4.6858,-4.6871,-4.6887,-4.6919,-4.693,-4.6957,-4.6933,-4.6961,-4.698,-4.6965,-4.7001,-4.7008,-4.7025,-4.7067,-4.7087,-4.7074,-4.7152,-4.7128,-4.7132,-4.7133,-4.7157,-4.7165,-4.7172,-4.7077,-4.7077,-4.7076,0,0,-4.691,-4.6922,-4.6955,-4.6968,-4.6987,-4.6991,-4.6999,-4.7015,-4.7019,-4.7056,-4.7045,-4.7069,-4.7109,-4.7122,-4.7133,-4.7193,-4.7182,-4.7201,-4.7231,-4.7255,-4.7262,-4.7268,-4.7287,-4.7295,-4.7205,-4.7205,-4.7205,0,-4.6933,-4.6972,-4.6972,-4.7002,-4.7016,-4.7006,-4.7038,-4.7051,-4.7076,-4.7086,-4.7073,-4.7125,-4.7135,-4.718,-4.7195,-4.7206,-4.7214,-4.7197,-4.7261,-4.7267,-4.7272,-4.7291,-4.7299,-4.7207,-4.7207,-4.7207,-4.7207,0,-4.6999,-4.7027,-4.7051,-4.7077,-4.7094,-4.7125,-4.713,-4.7148,-4.7145,-4.715,-4.7188,-4.7201,-4.7226,-4.7237,-4.7234,-4.7282,-4.7274,-4.7262,-4.7236,-4.7282,-4.73,-4.7307,-4.721,-4.7209,-4.7209,-4.7208,0,0,-4.7062,-4.709,-4.7098,-4.711,-4.7132,-4.7153,-4.7185,-4.721,-4.7225,-4.7244,-4.7269,-4.7305,-4.7294,-4.7307,-4.7306,-4.7328,-4.7373,-4.7312,-4.7313,-4.7321,-4.7426,-4.7434,-4.7442,-4.7368,-4.7369,-4.737,-4.7424,0,-4.7113,-4.7168,-4.717,-4.722,-4.7245,-4.7238,-4.7265,-4.7281,-4.7288,-4.731,-4.7317,-4.7342,-4.7326,-4.7334,-4.7356,-4.7363,-4.7394,-4.736,-4.739,-4.7391,-4.7383,-4.7451,-4.7459,-4.7509,-4.7431,-4.7432,-4.7433,0,-4.7179,-4.7201,-4.7253,-4.7273,-4.7284,-4.7308,-4.7332,-4.7354,-4.7373,-4.7376,-4.7393,-4.7389,-4.7421,-4.7398,-4.7442,-4.7418,-4.7432,-4.7437,-4.7439,-4.7439,-4.7412,-4.7451,-4.7525,-4.7532,-4.7444,-4.7443,-4.7443,0,-4.7217,-4.726,-4.7297,-4.7308,-4.7332,-4.7349,-4.736,-4.7377,-4.7393,-4.7415,-4.7424,-4.7449,-4.7462,-4.7482,-4.7485,-4.7468,-4.7528,-4.7505,-4.7531,-4.753,-4.7541,-4.7539,-4.7615,-4.7554,-4.7554,-4.7554,-4.7554,0,-4.7272,-4.7304,-4.7315,-4.7337,-4.7373,-4.7376,-4.7412,-4.7421,-4.7437,-4.7461,-4.7457,-4.748,-4.7484,-4.7507,-4.751,-4.7545,-4.7552,-4.7555,-4.7554,-4.7553,-4.7553,-4.7559,-4.7555,-4.7556,-4.7555,-4.7555,-4.7555,0,-4.7318,-4.7327,-4.7367,-4.7388,-4.7394,-4.7419,-4.7436,-4.7458,-4.7466,-4.7496,-4.7503,-4.7515,-4.7542,-4.7549,-4.7581,-4.7583,-4.7625,-4.7622,-4.7618,-4.7617,-4.7641,-4.7638,-4.7721,-4.7732,-4.7666,-4.7667,-4.7667,0,-4.7351,-4.7376,-4.74,-4.7416,-4.7428,-4.7455,-4.7471,-4.7477,-4.7494,-4.7519,-4.7537,-4.7565,-4.7587,-4.7632,-4.7642,-4.7667,-4.7664,-4.7692,-4.7668,-4.7666,-4.7662,-4.766,-4.7662,-4.7695,-4.7696,-4.7697,-4.7697,0,-4.7408,-4.7412,-4.7436,-4.7463,-4.7483,-4.7504,-4.7524,-4.7538,-4.7546,-4.7566,-4.7595,-4.7612,-4.7647,-4.7674,-4.77,-4.771,-4.7705,-4.7706,-4.7712,-4.771,-4.7705,-4.7706,-4.7628,-4.7703,-4.7702,-4.7702,-4.7701,-4.7701,-4.7447,-4.7469,-4.749,-4.7517,-4.7534,-4.7553,-4.7574,-4.7586,-4.761,-4.7639,-4.7641,-4.7673,-4.7693,-4.7727,-4.774,-4.7764,-4.7755,-4.7765,-4.7768,-4.7769,-4.7771,-4.7705,-4.7769,-4.7769,-4.7769,-4.7769,-4.7769,0,-4.7502,-4.7516,-4.7542,-4.7571,-4.7593,-4.7589,-4.7611,-4.7629,-4.7657,-4.7677,-4.7699,-4.7733,-4.776,-4.7775,-4.7801,-4.7818,-4.7816,-4.7825,-4.7822,-4.7824,-4.7778,-4.7768,-4.7826,-4.7826,-4.7826,-4.7826,-4.7826,-4.7826,-4.7533,-4.757,-4.7577,-4.7621,-4.7635,-4.7666,-4.7679,-4.7697,-4.7713,-4.7751,-4.7774,-4.7784,-4.7801,-4.783,-4.7855,-4.7858,-4.7867,-4.7876,-4.7878,-4.7834,-4.7828,-4.7822,-4.7813,-4.7879,-4.7879,-4.7923,-4.7923,-4.7924]},{"header":{"parameterUnit":"m.s-1","parameterCategory":1,"la1":30.2991,"la2":30.254,"lo1":-89.0895,"lo2":-89.0444,"dy":0.0017,"dx":0.0017,"nx":28,"ny":28,"refTime":"2023-03-19T21:00:00:Z","depth":0,"parameterNumber":3,"parameterNumberName":"V-component_of_WINDS"},"data":[0,0,0,0,0,0,0,0,0,0,0,0,0,0,0,0,0,0,0,0,0,0,0,0,0,0,0,0,0,0,0,0,0,0,0,0,0,0,0,0,0,0,0,0,0,0,0,0,0,0,0,0,0,0,0,0,0,0,2.8075,2.8075,0,2.8036,2.8036,2.8035,2.8034,2.8035,2.8035,2.8036,2.7993,2.7991,2.799,0,0,0,0,0,0,0,0,0,0,0,0,0,2.8146,2.8145,2.8075,2.8075,2.8074,2.8036,2.8036,2.8035,2.8034,2.8035,2.8035,2.8036,2.7993,2.7991,2.799,0,0,0,0,0,0,0,0,0,0,0,0,0,2.8112,2.8144,2.8075,2.8069,2.8068,2.8037,2.8036,2.8035,2.8034,2.8035,2.8036,2.8036,2.7994,2.7992,2.7989,2.796,0,0,2.7982,2.7981,0,0,0,0,0,0,0,0,2.8114,2.8109,2.807,2.8069,2.8068,2.8041,2.8045,2.801,2.8034,2.8047,2.8036,2.8037,2.8008,2.8005,2.7996,2.7958,2.7956,2.7982,2.798,2.7979,2.7979,0,0,0,0,0,0,0,2.8116,2.8111,2.806,2.807,2.8069,2.8068,2.8064,2.8038,2.8024,2.8046,2.8046,2.8041,2.8008,2.7998,2.7995,2.7956,2.7982,2.798,2.7978,2.7977,2.7893,2.7893,0,0,0,0,0,0,2.812,2.8113,2.8061,2.8058,2.8094,2.8066,2.8061,2.8049,2.8024,2.8021,2.8041,2.8041,2.8002,2.7997,2.7993,2.7958,2.7979,2.7977,2.7976,2.7894,2.7893,2.7892,0,0,0,0,0,0,2.8122,2.8116,2.8062,2.8086,2.8079,2.8064,2.805,2.8048,2.8038,2.802,2.8017,2.8034,2.8002,2.7996,2.7969,2.7956,2.7976,2.7974,2.7895,2.7894,2.7893,2.7887,0,0,0,0,0,0,2.8124,2.8116,2.8105,2.8086,2.8078,2.8039,2.8049,2.8047,2.8034,2.8035,2.8013,2.801,2.8002,2.7972,2.7966,2.7954,2.7972,2.7896,2.7895,2.7893,2.7888,2.7886,2.7884,0,0,0,0,0,2.8126,2.8104,2.8105,2.8098,2.8064,2.8039,2.8034,2.8027,2.8034,2.8022,2.8011,2.8011,2.7959,2.797,2.7963,2.7949,2.7897,2.7895,2.7893,2.7889,2.7886,2.7884,0,0,0,0,0,0,2.8121,2.8101,2.8102,2.8073,2.8058,2.8039,2.8024,2.8024,2.8005,2.8006,2.7997,2.7992,2.7965,2.7954,2.7966,2.792,2.7929,2.7925,2.7928,2.7925,2.7923,2.7926,2.797,0,0,0,0,0,2.8117,2.8099,2.8082,2.8058,2.8051,2.8039,2.8027,2.8023,2.8007,2.8,2.7987,2.797,2.795,2.7937,2.7918,2.7887,2.7883,2.7874,2.7872,2.787,2.7868,2.7852,2.7848,2.7887,2.7887,2.7887,0,0,2.8107,2.8094,2.8083,2.8057,2.8045,2.8026,2.8033,2.8013,2.7998,2.7996,2.797,2.796,2.7941,2.7912,2.7898,2.7902,2.7856,2.7868,2.7867,2.7865,2.785,2.7846,2.7843,2.7885,2.7886,2.7886,0,0,2.808,2.8068,2.8048,2.8036,2.8018,2.8011,2.8006,2.7987,2.7981,2.7955,2.7953,2.7936,2.7902,2.7888,2.7877,2.7847,2.7847,2.7841,2.7829,2.7814,2.7811,2.7808,2.7798,2.7794,2.7839,2.7839,2.7839,0,2.807,2.8042,2.8037,2.8017,2.8005,2.8005,2.7984,2.7972,2.7948,2.794,2.7945,2.7903,2.789,2.7859,2.7852,2.7843,2.7837,2.7843,2.7812,2.7809,2.7806,2.7797,2.7793,2.7838,2.7838,2.7838,2.7838,0,2.8031,2.8012,2.7998,2.7977,2.7964,2.7943,2.7934,2.7921,2.7919,2.7911,2.7885,2.7869,2.7847,2.784,2.7836,2.7808,2.7811,2.7814,2.7822,2.7803,2.7793,2.7789,2.7837,2.7838,2.7838,2.7838,0,0,2.7998,2.7976,2.7971,2.7962,2.7943,2.7928,2.7908,2.7888,2.7877,2.7861,2.7844,2.7816,2.782,2.7807,2.7802,2.7789,2.7767,2.7793,2.7793,2.7789,2.7736,2.7734,2.773,2.7767,2.7766,2.7765,2.7738,0,2.797,2.7935,2.793,2.7899,2.7881,2.7881,2.7864,2.785,2.7842,2.7826,2.7817,2.7798,2.7803,2.7796,2.7783,2.7772,2.7756,2.7774,2.775,2.7749,2.7755,2.7725,2.7722,2.7696,2.7734,2.7733,2.7733,0,2.7931,2.7916,2.7884,2.7869,2.7861,2.7845,2.7828,2.7812,2.7797,2.7792,2.7779,2.7777,2.7756,2.7766,2.7736,2.7749,2.7739,2.7732,2.7731,2.7728,2.774,2.7721,2.7688,2.7684,2.7727,2.7727,2.7728,0,2.7911,2.7883,2.786,2.7852,2.7834,2.7823,2.7815,2.78,2.7789,2.7773,2.7766,2.7747,2.7737,2.7723,2.7715,2.7723,2.7687,2.7696,2.7682,2.7682,2.7674,2.7674,2.7639,2.7667,2.7667,2.7668,2.7668,0,2.7879,2.786,2.7851,2.7837,2.7815,2.781,2.7788,2.778,2.7767,2.7751,2.775,2.7735,2.7726,2.771,2.7703,2.7681,2.7676,2.7671,2.767,2.7671,2.7672,2.7664,2.7666,2.7667,2.7667,2.7667,2.7667,0,2.7853,2.7846,2.7822,2.7807,2.7803,2.7788,2.7775,2.7761,2.7755,2.7735,2.773,2.7719,2.7699,2.7691,2.7667,2.7663,2.7637,2.7636,2.7642,2.7642,2.7629,2.763,2.7587,2.7581,2.7614,2.7613,2.7613,0,2.7833,2.7818,2.7803,2.7793,2.7785,2.7768,2.7758,2.7752,2.7741,2.7723,2.7712,2.7693,2.7678,2.7647,2.7637,2.7619,2.7618,2.7604,2.7615,2.7618,2.7618,2.7619,2.7618,2.7602,2.7602,2.7601,2.7601,0,2.7799,2.7797,2.7782,2.7766,2.7754,2.7741,2.7728,2.772,2.7712,2.7699,2.7681,2.7669,2.7646,2.7627,2.7609,2.76,2.7599,2.7598,2.7594,2.7595,2.76,2.7598,2.7637,2.7599,2.7599,2.7599,2.7599,2.7599,2.7776,2.7763,2.7751,2.7734,2.7724,2.7713,2.77,2.7692,2.7677,2.7658,2.7656,2.7636,2.7622,2.7598,2.7588,2.7572,2.7576,2.757,2.7568,2.7567,2.7566,2.7603,2.7569,2.7569,2.7569,2.7569,2.7569,0,2.7742,2.7734,2.772,2.7703,2.769,2.7692,2.7678,2.7667,2.7651,2.7638,2.7624,2.7603,2.7586,2.7574,2.7557,2.7546,2.7545,2.7542,2.7542,2.754,2.7564,2.757,2.7543,2.7543,2.7543,2.7543,2.7543,2.7543,2.7723,2.7702,2.7698,2.7673,2.7665,2.7647,2.7639,2.7628,2.7619,2.7596,2.7582,2.7575,2.7564,2.7545,2.7529,2.7527,2.752,2.7516,2.7513,2.7536,2.7538,2.7541,2.7546,2.7515,2.7515,2.7491,2.7491,2.7491]}]]